| time (UTC) | temp F | wind direction | speed knots | gust knots | rain 1hr in | rain 24hr in | rain mn in | humidity % | barometer mb |
| 20260505140223 | 54 | 149 | 2.6 | 4.3 | 0.00 | 0.00 | 0.00 | 85 | 1011.7 |
| 20260505130147 | 54 | 98 | 0.9 | 1.7 | 0.00 | 0.00 | 0.00 | 85 | 1011.1 |
| 20260505124637 | 54 | 145 | 1.7 | 2.6 | 0.00 | 0.00 | 0.00 | 85 | 1010.9 |
| 20260505124134 | 54 | 107 | 0.9 | 0.9 | 0.00 | 0.00 | 0.00 | 86 | 1010.9 |
| 20260505123629 | 54 | 136 | 0.9 | 1.7 | 0.00 | 0.00 | 0.00 | 86 | 1011.0 |
| 20260505123126 | 54 | 107 | 0.9 | 0.9 | 0.00 | 0.00 | 0.00 | 86 | 1010.8 |
| 20260505122623 | 54 | 128 | 2.6 | 5.2 | 0.00 | 0.00 | 0.00 | 86 | 1010.9 |
| 20260505122120 | 54 | 178 | 2.6 | 4.3 | 0.00 | 0.00 | 0.00 | 86 | 1010.8 |
| 20260505121617 | 54 | 82 | 0.9 | 0.9 | 0.00 | 0.00 | 0.00 | 86 | 1010.8 |
| 20260505121114 | 54 | 143 | 1.7 | 4.3 | 0.00 | 0.00 | 0.00 | 86 | 1010.6 |
| 20260505120610 | 54 | 151 | 3.5 | 4.3 | 0.00 | 0.00 | 0.00 | 86 | 1010.8 |
| 20260505120106 | 54 | 114 | 4.3 | 6.1 | 0.00 | 0.00 | 0.00 | 86 | 1010.8 |
| 20260505115600 | 54 | 153 | 2.6 | 4.3 | 0.00 | 0.00 | 0.00 | 87 | 1010.7 |
| 20260505115058 | 54 | 113 | 0.9 | 0.9 | 0.00 | 0.00 | 0.00 | 87 | 1010.7 |
| 20260505114555 | 54 | 143 | 3.5 | 5.2 | 0.00 | 0.00 | 0.00 | 87 | 1010.6 |
| 20260505114051 | 54 | 104 | 3.5 | 7.0 | 0.00 | 0.00 | 0.00 | 87 | 1010.7 |
| 20260505113547 | 54 | 170 | 4.3 | 6.1 | 0.00 | 0.00 | 0.00 | 87 | 1010.6 |
| 20260505113044 | 54 | 135 | 2.6 | 2.6 | 0.00 | 0.00 | 0.00 | 87 | 1010.7 |
| 20260505112540 | 54 | 275 | 2.6 | 2.6 | 0.00 | 0.00 | 0.00 | 87 | 1010.7 |
| 20260505112038 | 54 | 169 | 1.7 | 1.7 | 0.00 | 0.00 | 0.00 | 87 | 1010.5 |
| 20260505111532 | 54 | 132 | 1.7 | 2.6 | 0.00 | 0.00 | 0.00 | 87 | 1010.6 |
| 20260505111029 | 54 | 151 | 5.2 | 6.1 | 0.00 | 0.00 | 0.00 | 87 | 1010.4 |
| 20260505110525 | 54 | 188 | 3.5 | 4.3 | 0.00 | 0.00 | 0.00 | 87 | 1010.5 |
| 20260505101958 | 53 | 152 | 3.5 | 5.2 | 0.00 | 0.00 | 0.00 | 88 | 1010.2 |
| 20260505101455 | 53 | 148 | 4.3 | 6.1 | 0.00 | 0.00 | 0.00 | 88 | 1010.1 |
| 20260505100952 | 53 | 59 | 2.6 | 4.3 | 0.00 | 0.00 | 0.00 | 88 | 1010.2 |
| 20260505100449 | 53 | 224 | 1.7 | 5.2 | 0.00 | 0.00 | 0.00 | 88 | 1010.1 |
| 20260505095945 | 53 | 239 | 4.3 | 6.1 | 0.00 | 0.00 | 0.00 | 88 | 1010.2 |
| 20260505095442 | 53 | 135 | 1.7 | 1.7 | 0.00 | 0.00 | 0.00 | 89 | 1009.8 |
| 20260505094938 | 53 | 97 | 1.7 | 1.7 | 0.00 | 0.00 | 0.00 | 89 | 1010.0 |
| 20260505094435 | 53 | 180 | 3.5 | 4.3 | 0.00 | 0.00 | 0.00 | 89 | 1009.9 |
| 20260505093931 | 53 | 208 | 0.9 | 1.7 | 0.00 | 0.00 | 0.00 | 89 | 1010.1 |
| 20260505093428 | 53 | 219 | 0.9 | 2.6 | 0.00 | 0.00 | 0.00 | 89 | 1010.0 |
| 20260505092925 | 53 | 108 | 1.7 | 1.7 | 0.00 | 0.00 | 0.00 | 89 | 1009.8 |
| 20260505092423 | 53 | 136 | 2.6 | 2.6 | 0.00 | 0.00 | 0.00 | 89 | 1009.8 |
| 20260505091920 | 53 | 117 | 1.7 | 2.6 | 0.00 | 0.00 | 0.00 | 89 | 1009.9 |
| 20260505091418 | 53 | 61 | 1.7 | 1.7 | 0.00 | 0.00 | 0.00 | 89 | 1009.6 |
| 20260505090915 | 53 | 146 | 1.7 | 2.6 | 0.00 | 0.00 | 0.00 | 89 | 1009.6 |
| 20260505090413 | 53 | 145 | 0.0 | 0.9 | 0.00 | 0.00 | 0.00 | 89 | 1009.8 |
| 20260505085910 | 53 | 69 | 1.7 | 2.6 | 0.00 | 0.00 | 0.00 | 89 | 1009.9 |
| 20260505085409 | 53 | 141 | 0.9 | 1.7 | 0.00 | 0.00 | 0.00 | 89 | 1009.5 |
| 20260505084906 | 53 | 116 | 0.9 | 1.7 | 0.00 | 0.00 | 0.00 | 89 | 1009.7 |
| 20260505084404 | 53 | 154 | 2.6 | 2.6 | 0.00 | 0.00 | 0.00 | 89 | 1009.6 |
| 20260505083902 | 53 | 171 | 3.5 | 5.2 | 0.00 | 0.00 | 0.00 | 88 | 1009.5 |
| 20260505083359 | 53 | 204 | 1.7 | 2.6 | 0.00 | 0.00 | 0.00 | 88 | 1009.5 |
| 20260505082855 | 53 | 162 | 2.6 | 2.6 | 0.00 | 0.00 | 0.00 | 88 | 1009.4 |
| 20260505082351 | 53 | 215 | 1.7 | 2.6 | 0.00 | 0.00 | 0.00 | 88 | 1009.4 |
| 20260505081849 | 53 | 112 | 2.6 | 4.3 | 0.00 | 0.00 | 0.00 | 88 | 1009.4 |
| 20260505081345 | 53 | 150 | 1.7 | 1.7 | 0.00 | 0.00 | 0.00 | 88 | 1009.4 |
| 20260505080842 | 53 | 229 | 4.3 | 7.8 | 0.00 | 0.00 | 0.00 | 88 | 1009.4 |
| 20260505080338 | 54 | 217 | 2.6 | 4.3 | 0.00 | 0.00 | 0.00 | 88 | 1009.5 |
| 20260505075833 | 54 | 146 | 1.7 | 1.7 | 0.00 | 0.00 | 0.00 | 88 | 1009.4 |
| 20260505075331 | 54 | 128 | 0.9 | 1.7 | 0.00 | 0.00 | 0.00 | 87 | 1009.4 |
| 20260505074828 | 54 | 110 | 0.9 | 1.7 | 0.00 | 0.00 | 0.00 | 87 | 1009.4 |
| 20260505074325 | 54 | 98 | 1.7 | 1.7 | 0.00 | 0.00 | 0.00 | 87 | 1009.6 |
| 20260505073822 | 54 | 151 | 1.7 | 1.7 | 0.00 | 0.00 | 0.00 | 87 | 1009.2 |
| 20260505073320 | 54 | 136 | 1.7 | 1.7 | 0.00 | 0.00 | 0.00 | 87 | 1008.9 |
| 20260505072817 | 54 | 198 | 3.5 | 4.3 | 0.00 | 0.00 | 0.00 | 87 | 1009.0 |
| 20260505072313 | 54 | 207 | 3.5 | 5.2 | 0.00 | 0.00 | 0.00 | 87 | 1009.1 |
| 20260505071809 | 54 | 223 | 2.6 | 4.3 | 0.00 | 0.00 | 0.00 | 86 | 1008.8 |
| 20260505071306 | 54 | 203 | 3.5 | 5.2 | 0.00 | 0.00 | 0.00 | 86 | 1008.7 |
| 20260505070804 | 54 | 197 | 2.6 | 4.3 | 0.00 | 0.00 | 0.00 | 86 | 1009.0 |
| 20260505070300 | 55 | 200 | 2.6 | 5.2 | 0.00 | 0.00 | 0.00 | 86 | 1008.8 |
| 20260505065755 | 55 | 84 | 1.7 | 1.7 | 0.00 | 0.00 | 0.00 | 86 | 1008.8 |
| 20260505065252 | 55 | 167 | 4.3 | 5.2 | 0.00 | 0.00 | 0.00 | 85 | 1008.8 |
| 20260505064749 | 55 | 104 | 1.7 | 2.6 | 0.00 | 0.00 | 0.00 | 85 | 1008.8 |
| 20260505064247 | 55 | 226 | 2.6 | 2.6 | 0.00 | 0.00 | 0.00 | 85 | 1008.6 |
| 20260505063744 | 55 | 126 | 0.9 | 1.7 | 0.00 | 0.00 | 0.00 | 84 | 1008.5 |
| 20260505063240 | 55 | 232 | 3.5 | 4.3 | 0.00 | 0.00 | 0.00 | 84 | 1008.6 |
| 20260505062736 | 55 | 139 | 0.9 | 1.7 | 0.00 | 0.00 | 0.00 | 84 | 1008.6 |
| 20260505062234 | 55 | 128 | 1.7 | 2.6 | 0.00 | 0.00 | 0.00 | 84 | 1008.6 |
| 20260505061731 | 56 | 215 | 2.6 | 4.3 | 0.00 | 0.00 | 0.00 | 83 | 1008.6 |
| 20260505061229 | 56 | 67 | 0.9 | 1.7 | 0.00 | 0.00 | 0.00 | 83 | 1008.5 |
| 20260505060726 | 56 | 133 | 0.9 | 0.9 | 0.00 | 0.00 | 0.00 | 83 | 1008.5 |
| 20260505060223 | 56 | 93 | 0.9 | 0.9 | 0.00 | 0.00 | 0.00 | 83 | 1008.3 |
| 20260505055718 | 56 | 113 | 1.7 | 2.6 | 0.00 | 0.00 | 0.00 | 83 | 1008.5 |
| 20260505055215 | 56 | 187 | 0.9 | 1.7 | 0.00 | 0.00 | 0.00 | 82 | 1008.1 |
| 20260505054713 | 56 | 117 | 0.9 | 1.7 | 0.00 | 0.00 | 0.00 | 82 | 1008.3 |
| 20260505054210 | 56 | 273 | 1.7 | 2.6 | 0.00 | 0.00 | 0.00 | 81 | 1008.1 |
| 20260505053708 | 57 | 197 | 3.5 | 5.2 | 0.00 | 0.00 | 0.00 | 81 | 1008.2 |
| 20260505053204 | 57 | 214 | 1.7 | 4.3 | 0.00 | 0.00 | 0.00 | 80 | 1008.0 |
| 20260505052702 | 57 | 198 | 2.6 | 2.6 | 0.00 | 0.00 | 0.00 | 80 | 1008.1 |
| 20260505052158 | 57 | 164 | 4.3 | 5.2 | 0.00 | 0.00 | 0.00 | 79 | 1008.0 |
| 20260505051656 | 58 | 216 | 4.3 | 6.1 | 0.00 | 0.00 | 0.00 | 79 | 1007.7 |
| 20260505051154 | 58 | 212 | 2.6 | 4.3 | 0.00 | 0.00 | 0.00 | 78 | 1008.0 |
| 20260505050651 | 58 | 163 | 2.6 | 2.6 | 0.00 | 0.00 | 0.00 | 78 | 1008.0 |
| 20260505050149 | 59 | 205 | 4.3 | 6.1 | 0.00 | 0.00 | 0.00 | 77 | 1007.5 |
| 20260505041619 | 61 | 195 | 2.6 | 2.6 | 0.00 | 0.00 | 0.00 | 72 | 1007.1 |
| 20260505041116 | 62 | 200 | 2.6 | 2.6 | 0.00 | 0.00 | 0.00 | 71 | 1007.0 |
| 20260505040613 | 62 | 199 | 4.3 | 7.0 | 0.00 | 0.00 | 0.00 | 70 | 1006.9 |
| 20260505040110 | 63 | 181 | 3.5 | 5.2 | 0.00 | 0.00 | 0.00 | 70 | 1006.8 |
| 20260505035606 | 63 | 22 | 1.7 | 1.7 | 0.00 | 0.00 | 0.00 | 69 | 1006.9 |
| 20260505035103 | 63 | 159 | 2.6 | 2.6 | 0.00 | 0.00 | 0.00 | 68 | 1006.6 |
| 20260505034559 | 64 | 211 | 2.6 | 2.6 | 0.00 | 0.00 | 0.00 | 68 | 1006.8 |
| 20260505034056 | 64 | 206 | 2.6 | 2.6 | 0.00 | 0.00 | 0.00 | 67 | 1006.6 |
| 20260505033553 | 65 | 183 | 2.6 | 2.6 | 0.00 | 0.00 | 0.00 | 66 | 1006.5 |
| 20260505033052 | 65 | 217 | 3.5 | 5.2 | 0.00 | 0.00 | 0.00 | 65 | 1006.6 |
| 20260505032549 | 66 | 205 | 2.6 | 2.6 | 0.00 | 0.00 | 0.00 | 65 | 1006.6 |
| 20260505032045 | 66 | 233 | 2.6 | 2.6 | 0.00 | 0.00 | 0.00 | 64 | 1006.6 |
| 20260505031543 | 67 | 228 | 3.5 | 4.3 | 0.00 | 0.00 | 0.00 | 63 | 1006.3 |
| 20260505031039 | 68 | 187 | 4.3 | 5.2 | 0.00 | 0.00 | 0.00 | 62 | 1006.4 |
| 20260505030536 | 68 | 165 | 1.7 | 1.7 | 0.00 | 0.00 | 0.00 | 61 | 1006.4 |
| 20260505030032 | 69 | 176 | 3.5 | 5.2 | 0.00 | 0.00 | 0.00 | 59 | 1006.3 |
| 20260505025528 | 70 | 210 | 2.6 | 2.6 | 0.00 | 0.00 | 0.00 | 58 | 1006.2 |
| 20260505025027 | 70 | 121 | 1.7 | 2.6 | 0.00 | 0.00 | 0.00 | 57 | 1006.2 |
| 20260505024524 | 71 | 211 | 2.6 | 2.6 | 0.00 | 0.00 | 0.00 | 56 | 1006.2 |
| 20260505024021 | 71 | 152 | 2.6 | 2.6 | 0.00 | 0.00 | 0.00 | 55 | 1006.2 |
| 20260505023518 | 72 | 117 | 1.7 | 2.6 | 0.00 | 0.00 | 0.00 | 54 | 1005.9 |
| 20260505023015 | 72 | 238 | 4.3 | 5.2 | 0.00 | 0.00 | 0.00 | 52 | 1006.0 |
| 20260505022513 | 73 | 124 | 2.6 | 4.3 | 0.00 | 0.00 | 0.00 | 51 | 1006.0 |
| 20260505022010 | 73 | 170 | 1.7 | 1.7 | 0.00 | 0.00 | 0.00 | 49 | 1006.0 |
| 20260505021506 | 74 | 138 | 0.9 | 1.7 | 0.00 | 0.00 | 0.00 | 49 | 1005.9 |
| 20260505021003 | 74 | 211 | 4.3 | 4.3 | 0.00 | 0.00 | 0.00 | 49 | 1006.0 |
| 20260505020457 | 74 | 217 | 2.6 | 4.3 | 0.00 | 0.00 | 0.00 | 49 | 1006.0 |
| 20260505015954 | 74 | 115 | 0.9 | 1.7 | 0.00 | 0.00 | 0.00 | 49 | 1006.1 |
| 20260505015452 | 75 | 139 | 1.7 | 1.7 | 0.00 | 0.00 | 0.00 | 49 | 1005.9 |
| 20260505014949 | 75 | 223 | 2.6 | 5.2 | 0.00 | 0.00 | 0.00 | 49 | 1006.2 |
| 20260505014446 | 75 | 153 | 1.7 | 2.6 | 0.00 | 0.00 | 0.00 | 49 | 1005.8 |
| 20260505013943 | 76 | 228 | 2.6 | 4.3 | 0.00 | 0.00 | 0.00 | 48 | 1006.2 |
| 20260505013440 | 76 | 176 | 2.6 | 2.6 | 0.00 | 0.00 | 0.00 | 48 | 1006.1 |
| 20260505012937 | 76 | 94 | 0.9 | 1.7 | 0.00 | 0.00 | 0.00 | 49 | 1006.2 |
| 20260505012435 | 76 | 123 | 3.5 | 5.2 | 0.00 | 0.00 | 0.00 | 49 | 1006.0 |
| 20260505011931 | 76 | 235 | 4.3 | 5.2 | 0.00 | 0.00 | 0.00 | 48 | 1006.0 |
| 20260505011427 | 76 | 199 | 2.6 | 2.6 | 0.00 | 0.00 | 0.00 | 48 | 1006.1 |
| 20260505010925 | 76 | 181 | 2.6 | 4.3 | 0.00 | 0.00 | 0.00 | 48 | 1006.1 |
| 20260505010420 | 77 | 302 | 2.6 | 2.6 | 0.00 | 0.00 | 0.00 | 47 | 1006.1 |
| 20260505005916 | 77 | 194 | 2.6 | 4.3 | 0.00 | 0.00 | 0.00 | 46 | 1006.3 |
| 20260505005413 | 77 | 116 | 0.9 | 0.9 | 0.00 | 0.00 | 0.00 | 48 | 1006.2 |
| 20260505004911 | 77 | 87 | 1.7 | 2.6 | 0.00 | 0.00 | 0.00 | 47 | 1006.2 |
| 20260505004407 | 77 | 207 | 3.5 | 4.3 | 0.00 | 0.00 | 0.00 | 46 | 1006.1 |
| 20260505003904 | 76 | 164 | 3.5 | 5.2 | 0.00 | 0.00 | 0.00 | 47 | 1006.3 |
| 20260505003401 | 77 | 230 | 2.6 | 4.3 | 0.00 | 0.00 | 0.00 | 47 | 1006.2 |
| 20260505002857 | 77 | 195 | 4.3 | 5.2 | 0.00 | 0.00 | 0.00 | 45 | 1006.2 |
| 20260505002354 | 77 | 185 | 1.7 | 1.7 | 0.00 | 0.00 | 0.00 | 46 | 1006.4 |
| 20260505001853 | 77 | 235 | 1.7 | 2.6 | 0.00 | 0.00 | 0.00 | 44 | 1006.2 |
| 20260505001349 | 77 | 132 | 3.5 | 5.2 | 0.00 | 0.00 | 0.00 | 44 | 1006.3 |
| 20260505000847 | 77 | 179 | 3.5 | 4.3 | 0.00 | 0.00 | 0.00 | 43 | 1006.2 |
| 20260505000345 | 78 | 140 | 0.9 | 1.7 | 0.00 | 0.00 | 0.00 | 42 | 1006.2 |
| 20260504235841 | 77 | 81 | 0.9 | 0.9 | 0.00 | 0.00 | 0.00 | 44 | 1006.5 |
| 20260504235338 | 78 | 267 | 1.7 | 2.6 | 0.00 | 0.00 | 0.00 | 43 | 1006.2 |
| 20260504234834 | 79 | 159 | 1.7 | 1.7 | 0.00 | 0.00 | 0.00 | 41 | 1006.5 |
| 20260504234332 | 78 | 6 | 0.9 | 0.9 | 0.00 | 0.00 | 0.00 | 42 | 1006.4 |
| 20260504233829 | 78 | 194 | 2.6 | 2.6 | 0.00 | 0.00 | 0.00 | 42 | 1006.4 |
| 20260504233324 | 78 | 187 | 1.7 | 1.7 | 0.00 | 0.00 | 0.00 | 42 | 1006.4 |
| 20260504232821 | 78 | 88 | 1.7 | 2.6 | 0.00 | 0.00 | 0.00 | 42 | 1006.4 |
| 20260504232318 | 78 | 168 | 2.6 | 2.6 | 0.00 | 0.00 | 0.00 | 40 | 1006.5 |
| 20260504231815 | 78 | 123 | 0.9 | 1.7 | 0.00 | 0.00 | 0.00 | 41 | 1006.1 |
| 20260504231312 | 78 | 312 | 3.5 | 5.2 | 0.00 | 0.00 | 0.00 | 40 | 1006.4 |
| 20260504230808 | 78 | 225 | 2.6 | 2.6 | 0.00 | 0.00 | 0.00 | 39 | 1006.3 |
| 20260504230306 | 78 | 173 | 3.5 | 4.3 | 0.00 | 0.00 | 0.00 | 40 | 1006.4 |
| 20260504225805 | 78 | 200 | 3.5 | 4.3 | 0.00 | 0.00 | 0.00 | 38 | 1006.3 |
| 20260504225301 | 78 | 72 | 0.9 | 1.7 | 0.00 | 0.00 | 0.00 | 40 | 1006.4 |
| 20260504224758 | 78 | 155 | 1.7 | 4.3 | 0.00 | 0.00 | 0.00 | 41 | 1006.7 |
| 20260504224255 | 79 | 160 | 3.5 | 4.3 | 0.00 | 0.00 | 0.00 | 40 | 1006.8 |
| 20260504223751 | 79 | 77 | 0.9 | 0.9 | 0.00 | 0.00 | 0.00 | 41 | 1006.8 |
| 20260504223247 | 79 | 86 | 0.0 | 0.9 | 0.00 | 0.00 | 0.00 | 42 | 1007.0 |
| 20260504222744 | 78 | 74 | 0.9 | 0.9 | 0.00 | 0.00 | 0.00 | 43 | 1006.9 |
| 20260504222240 | 77 | 76 | 0.9 | 0.9 | 0.00 | 0.00 | 0.00 | 43 | 1007.1 |
| 20260504221738 | 77 | 294 | 2.6 | 2.6 | 0.00 | 0.00 | 0.00 | 43 | 1007.1 |
| 20260504221235 | 77 | 324 | 1.7 | 1.7 | 0.00 | 0.00 | 0.00 | 44 | 1007.0 |
| 20260504220732 | 77 | 72 | 0.9 | 1.7 | 0.00 | 0.00 | 0.00 | 44 | 1007.0 |
| 20260504220229 | 76 | 281 | 2.6 | 2.6 | 0.00 | 0.00 | 0.00 | 44 | 1007.1 |
| 20260504215727 | 75 | 297 | 2.6 | 4.3 | 0.00 | 0.00 | 0.00 | 45 | 1007.4 |
| 20260504215223 | 76 | 181 | 4.3 | 5.2 | 0.00 | 0.00 | 0.00 | 45 | 1007.2 |
| 20260504214719 | 76 | 264 | 3.5 | 5.2 | 0.00 | 0.00 | 0.00 | 45 | 1007.3 |
| 20260504214216 | 75 | 305 | 3.5 | 4.3 | 0.00 | 0.00 | 0.00 | 46 | 1007.3 |
| 20260504213712 | 76 | 309 | 3.5 | 4.3 | 0.00 | 0.00 | 0.00 | 45 | 1007.2 |
| 20260504213209 | 76 | 245 | 1.7 | 4.3 | 0.00 | 0.00 | 0.00 | 46 | 1007.2 |
| 20260504212706 | 75 | 191 | 1.7 | 1.7 | 0.00 | 0.00 | 0.00 | 47 | 1007.4 |
| 20260504212203 | 75 | 241 | 2.6 | 4.3 | 0.00 | 0.00 | 0.00 | 46 | 1007.4 |
| 20260504211700 | 75 | 359 | 2.6 | 4.3 | 0.00 | 0.00 | 0.00 | 46 | 1007.3 |
| 20260504211156 | 75 | 255 | 1.7 | 2.6 | 0.00 | 0.00 | 0.00 | 48 | 1007.2 |
| 20260504210654 | 75 | 235 | 3.5 | 4.3 | 0.00 | 0.00 | 0.00 | 48 | 1007.3 |
| 20260504210150 | 75 | 27 | 2.6 | 2.6 | 0.00 | 0.00 | 0.00 | 48 | 1007.4 |
| 20260504205648 | 74 | 100 | 0.9 | 0.9 | 0.00 | 0.00 | 0.00 | 48 | 1007.6 |
| 20260504205144 | 75 | 218 | 1.7 | 2.6 | 0.00 | 0.00 | 0.00 | 48 | 1007.6 |
| 20260504204643 | 75 | 221 | 2.6 | 4.3 | 0.00 | 0.00 | 0.00 | 49 | 1007.6 |
| 20260504204142 | 75 | 193 | 2.6 | 4.3 | 0.00 | 0.00 | 0.00 | 48 | 1007.3 |
| 20260504203640 | 74 | 174 | 2.6 | 4.3 | 0.00 | 0.00 | 0.00 | 48 | 1007.5 |
| 20260504203137 | 73 | 160 | 1.7 | 1.7 | 0.00 | 0.00 | 0.00 | 51 | 1007.6 |
| 20260504202637 | 73 | 241 | 2.6 | 4.3 | 0.00 | 0.00 | 0.00 | 51 | 1007.6 |
| 20260504202134 | 72 | 224 | 4.3 | 5.2 | 0.00 | 0.00 | 0.00 | 51 | 1007.6 |
| 20260504201631 | 73 | 149 | 2.6 | 4.3 | 0.00 | 0.00 | 0.00 | 51 | 1007.6 |
| 20260504201129 | 73 | 168 | 1.7 | 1.7 | 0.00 | 0.00 | 0.00 | 50 | 1007.5 |
| 20260504200626 | 73 | 75 | 1.7 | 1.7 | 0.00 | 0.00 | 0.00 | 51 | 1007.4 |
| 20260504200122 | 72 | 153 | 2.6 | 4.3 | 0.00 | 0.00 | 0.00 | 52 | 1007.5 |
| 20260504195618 | 73 | 176 | 2.6 | 2.6 | 0.00 | 0.00 | 0.00 | 52 | 1007.4 |
| 20260504195115 | 74 | 305 | 3.5 | 5.2 | 0.00 | 0.00 | 0.00 | 51 | 1007.7 |
| 20260504194612 | 73 | 239 | 2.6 | 2.6 | 0.00 | 0.00 | 0.00 | 52 | 1007.6 |
| 20260504194107 | 72 | 257 | 1.7 | 2.6 | 0.00 | 0.00 | 0.00 | 52 | 1007.5 |
| 20260504193604 | 72 | 225 | 2.6 | 2.6 | 0.00 | 0.00 | 0.00 | 51 | 1007.7 |
| 20260504193102 | 72 | 183 | 3.5 | 6.1 | 0.00 | 0.00 | 0.00 | 51 | 1008.2 |
| 20260504192600 | 73 | 288 | 2.6 | 2.6 | 0.00 | 0.00 | 0.00 | 53 | 1007.6 |
| 20260504192058 | 73 | 287 | 2.6 | 4.3 | 0.00 | 0.00 | 0.00 | 53 | 1007.5 |
| 20260504191556 | 73 | 208 | 1.7 | 2.6 | 0.00 | 0.00 | 0.00 | 51 | 1007.4 |
| 20260504191052 | 73 | 278 | 2.6 | 2.6 | 0.00 | 0.00 | 0.00 | 52 | 1008.1 |
| 20260504190548 | 73 | 243 | 2.6 | 4.3 | 0.00 | 0.00 | 0.00 | 52 | 1008.0 |
| 20260504190044 | 73 | 214 | 2.6 | 4.3 | 0.00 | 0.00 | 0.00 | 50 | 1007.9 |
| 20260504185542 | 74 | 275 | 2.6 | 2.6 | 0.00 | 0.00 | 0.00 | 49 | 1008.0 |
| 20260504185038 | 73 | 158 | 2.6 | 4.3 | 0.00 | 0.00 | 0.00 | 48 | 1007.9 |
| 20260504184534 | 73 | 133 | 2.6 | 2.6 | 0.00 | 0.00 | 0.00 | 48 | 1007.7 |
| 20260504184029 | 73 | 148 | 0.0 | 0.9 | 0.00 | 0.00 | 0.00 | 47 | 1008.0 |
| 20260504183527 | 73 | 112 | 0.9 | 0.9 | 0.00 | 0.00 | 0.00 | 50 | 1007.9 |
| 20260504183025 | 73 | 112 | 1.7 | 1.7 | 0.00 | 0.00 | 0.00 | 48 | 1007.6 |
| 20260504182521 | 73 | 116 | 0.9 | 0.9 | 0.00 | 0.00 | 0.00 | 49 | 1008.1 |
| 20260504182019 | 72 | 98 | 1.7 | 2.6 | 0.00 | 0.00 | 0.00 | 50 | 1008.1 |
| 20260504181515 | 71 | 106 | 0.9 | 0.9 | 0.00 | 0.00 | 0.00 | 52 | 1008.2 |
| 20260504181014 | 71 | 312 | 1.7 | 1.7 | 0.00 | 0.00 | 0.00 | 53 | 1007.9 |
| 20260504180513 | 71 | 303 | 1.7 | 1.7 | 0.00 | 0.00 | 0.00 | 52 | 1008.1 |
| 20260504180011 | 69 | 138 | 1.7 | 1.7 | 0.00 | 0.00 | 0.00 | 55 | 1007.7 |
| 20260504175508 | 69 | 304 | 0.9 | 1.7 | 0.00 | 0.00 | 0.00 | 55 | 1008.2 |
| 20260504175005 | 69 | 279 | 3.5 | 4.3 | 0.00 | 0.00 | 0.00 | 54 | 1008.1 |
| 20260504174502 | 70 | 277 | 3.5 | 4.3 | 0.00 | 0.00 | 0.00 | 52 | 1008.1 |
| 20260504173959 | 70 | 109 | 0.9 | 1.7 | 0.00 | 0.00 | 0.00 | 50 | 1007.7 |
| 20260504173456 | 70 | 20 | 1.7 | 1.7 | 0.00 | 0.00 | 0.00 | 51 | 1007.9 |
| 20260504172954 | 69 | 315 | 1.7 | 2.6 | 0.00 | 0.00 | 0.00 | 53 | 1008.0 |
| 20260504172449 | 69 | 344 | 0.9 | 1.7 | 0.00 | 0.00 | 0.00 | 54 | 1007.9 |
| 20260504171946 | 69 | 138 | 0.9 | 1.7 | 0.00 | 0.00 | 0.00 | 54 | 1007.9 |
| 20260504171443 | 69 | 91 | 0.9 | 0.9 | 0.00 | 0.00 | 0.00 | 53 | 1008.3 |
| 20260504170940 | 69 | 339 | 1.7 | 1.7 | 0.00 | 0.00 | 0.00 | 52 | 1007.7 |
| 20260504170436 | 68 | 75 | 1.7 | 1.7 | 0.00 | 0.00 | 0.00 | 52 | 1008.0 |
| 20260504160356 | 67 | 73 | 0.9 | 0.9 | 0.00 | 0.00 | 0.00 | 53 | 1007.5 |
| 20260504150820 | 60 | 25 | 0.9 | 0.9 | 0.00 | 0.00 | 0.00 | 68 | 1007.1 |
| 20260504150316 | 60 | 338 | 1.7 | 1.7 | 0.00 | 0.00 | 0.00 | 67 | 1007.2 |